Regional Weather Roundup
Issued by NWS

Home | Current Version | Previous Version | Graphics & Text | Print | Product List | Glossary On
Versions: 1 2 3 4 5 6 7 8 9 10 11 12 13 14 15 16 17 18 19 20 21 22 23 24 25 26 27 28 29 30 31 32 33 34 35 36 37 38 39 40 41 42 43 44 45 46 47 48 49 50
294
ASUS44 KLIX 312301
RWRLA
LOUISIANA WEATHER ROUNDUP
NATIONAL WEATHER SERVICE NEW ORLEANS LA
500 PM CST SAT JAN 31 2015

NOTE: "FAIR" INDICATES FEW OR NO CLOUDS BELOW 12,000 FEET WITH NO
      SIGNIFICANT WEATHER AND/OR OBSTRUCTIONS TO VISIBILITY.
      SKY/WX - SKY CONDITION AND SIGNIFICANT WEATHER.
      TMP - AIR TEMPERATURE.    DP   - DEWPOINT TEMPERATURE.
      RH  - RELATIVE HUMIDITY.  PRES - PRESSURE.
      HX  - HEAT INDEX.         WCI  - WIND CHILL INDEX.

*  THESE STATIONS ARE NOT NWS OR FAA STATIONS AND ARE NOT UNDER
   NWS QUALITY CONTROL.

LAZ040-048-061>063-065-066-069-010000-
SOUTHEAST LOUISIANA

CITY           SKY/WX    TMP DP  RH WIND       PRES   REMARKS
N.O. AUDUBON     N/A     59  53  81 MISG        N/A
N.O. INTL ARPT CLOUDY    58  48  69 E9        30.18S
N.O. LAKEFRONT MOCLDY    59  49  69 E15       30.19S
N.O. DOWNTOWN* NOT AVBL
SLIDELL        MOCLDY    58  47  66 E6        30.19F
BATON ROUGE    MOCLDY    59  46  62 E12       30.16F
BOOTHVILLE     PTCLDY    61  53  75 E7        30.17F
BELLE CHASSE   MOCLDY    61  49  64 E12       30.17S
BOGALUSA*        N/A     62  45  53 SE8       30.20F
GALLIANO*      NOT AVBL
NEW ROADS*     NOT AVBL
GONZALES*      NOT AVBL
HAMMOND*       NOT AVBL
HOUMA*         PTCLDY    63  52  67 E14       30.16S
PORT FOURCHON* CLEAR     64  55  72 E13G20    30.18S

$$

LAZ041-044-053-054-010000-
SOUTHWEST LOUISIANA

CITY           SKY/WX    TMP DP  RH WIND       PRES   REMARKS
LAKE CHARLES   PTCLDY    62  52  69 SE15      30.09F
LAFAYETTE      CLOUDY    63  49  60 VRB7      30.13F
PATTERSON      CLOUDY    63  48  59 E13       30.15S
SALT POINT       N/A     63  52  67 E8        30.12F
NEW IBERIA     MOCLDY    63  49  60 E13       30.13F
CHENAULT AIRPK NOT AVBL

$$

LAZ027-028-010000-
CENTRAL LOUISIANA

CITY           SKY/WX    TMP DP  RH WIND       PRES   REMARKS
FORT POLK      CLOUDY    59  47  65 SE8       30.10S
ALEXANDRIA INT CLOUDY    58  42  55 SE9       30.11F
ALEXANDRIA     CLOUDY    60  41  49 E6        30.12F

$$

LAZ001-002-010000-
NORTHWEST LOUISIANA

CITY           SKY/WX    TMP DP  RH WIND       PRES   REMARKS
SHREVEPORT     CLOUDY    58  34  40 SE12      30.08F
BARKSDALE AFB  CLOUDY    55  35  46 E7        30.09F
DTN SHREVEPORT CLOUDY    55  32  41 E9        30.09F

$$

LAZ014-016-010000-
NORTHEAST LOUISIANA

CITY           SKY/WX    TMP DP  RH WIND       PRES   REMARKS
MONROE         MOCLDY    55  32  41 E5        30.15F
TALLULAH       CLOUDY    58  34  40 SE6       30.16F

$$




USA.gov is the U.S. government's official web portal to all federal, state and local government web resources and services.